Weather History for Midland, MI

Change the Weather History Date:

Saturday, June 14, 2014

  Actual Average (KMBS) Record (KMBS)
Temperature  
Mean Temperature 55 °F 67 °F  
Max Temperature 73 °F 78 °F 91 °F (2001)
Min Temperature 37 °F 56 °F 44 °F (2014)
Degree Days  
Heating Degree Days 10    
Month to date heating degree days  
Since 1 June heating degree days  
Since 1 July heating degree days  
Cooling Degree Days 0    
Month to date cooling degree days  
Year to date cooling degree days  
Since 1 June cooling degree days  
Growing Degree Days 5 (Base 50)    
Moisture  
Dew Point 43 °F    
Average Humidity 64    
Maximum Humidity 95    
Minimum Humidity 31    
Precipitation  
Precipitation 0.00 in 0.11 in 0.75 in (2002)
Month to date precipitation 1.40  
Year to date precipitation 13.05  
Snow  
Snow 0.00 in - - ()
Month to date snowfall  
Since 1 June snowfall  
Since 1 July snowfall  
Snow Depth -    
Sea Level Pressure  
Sea Level Pressure 30.10 in    
Wind  
Wind Speed 2 mph (North)    
Max Wind Speed 10 mph    
Max Gust Speed -    
Visibility 9 miles    
Events      
T = Trace of Precipitation, MM = Missing Value Source: NWS Daily Summary

Daily Weather History Graph

Daily Weather History Graph

Search for Another Location

Airport:

Trip Planner

Search our weather history database for the weather conditions in past years. The results will help you decide how hot, cold, wet, or windy it might be!

Date:

Astronomy

Jun. 14, 2014 Rise Set
Actual Time 5:54 AM EDT 9:20 PM EDT
Civil Twilight 5:18 AM EDT 9:55 PM EDT
Nautical Twilight 4:32 AM EDT 10:42 PM EDT
Astronomical Twilight 3:33 AM EDT 11:42 PM EDT
Moon 10:38 PM EDT (6/14) 7:41 AM EDT (6/14)
Length of Visible Light 16h 36m
Length of Day
15h 25m
Full, 97% of the Moon is Illuminated
Jun 14
Full
Jun 19
Last Quarter
Jun 27
New
Jul 5
First Quarter
Jul 12
Full

Hourly Weather History & Observations

Time (EDT) Temp. Dew Point Humidity Pressure Visibility Wind Dir Wind Speed Gust Speed Precip Events Conditions
12:11 AM 43.5 °F 41.7 °F 93% 30.04 in 10.0 mi Calm Calm - N/A   Clear
12:32 AM 43.3 °F 41.4 °F 93% 30.04 in 10.0 mi Calm Calm - N/A   Clear
12:51 AM 43.9 °F 41.9 °F 93% 30.04 in 10.0 mi Calm Calm - N/A   Clear
1:11 AM 43.9 °F 41.9 °F 93% 30.05 in 10.0 mi Calm Calm - N/A   Clear
1:32 AM 42.3 °F 40.5 °F 93% 30.05 in 10.0 mi Calm Calm - N/A   Clear
1:51 AM 42.6 °F 40.5 °F 92% 30.06 in 10.0 mi Calm Calm - N/A   Clear
2:11 AM 42.3 °F 40.5 °F 93% 30.05 in 10.0 mi Calm Calm - N/A   Clear
2:32 AM 41.2 °F 39.4 °F 93% 30.05 in 10.0 mi Calm Calm - N/A   Clear
2:51 AM 41.9 °F 40.1 °F 93% 30.06 in 1.5 mi Calm Calm - N/A   Mist
3:11 AM 41.2 °F 39.6 °F 94% 30.05 in 5.0 mi Calm Calm - N/A   Clear
3:32 AM 40.5 °F 38.8 °F 94% 30.06 in 1.8 mi Calm Calm - N/A   Mist
3:51 AM 40.3 °F 38.8 °F 95% 30.06 in 3.0 mi Calm Calm - N/A   Clear
4:11 AM 39.6 °F 38.3 °F 95% 30.07 in 10.0 mi Calm Calm - N/A   Clear
4:32 AM 38.8 °F 37.6 °F 95% 30.07 in 10.0 mi Calm Calm - N/A   Clear
4:51 AM 39.2 °F 37.8 °F 95% 30.08 in 10.0 mi Calm Calm - N/A   Clear
5:11 AM 38.5 °F 37.0 °F 95% 30.08 in 10.0 mi Calm Calm - N/A   Clear
5:31 AM 37.6 °F 36.1 °F 95% 30.10 in 10.0 mi Calm Calm - N/A   Clear
5:51 AM 38.8 °F 37.4 °F 95% 30.11 in 10.0 mi Calm Calm - N/A   Clear
6:12 AM 39.6 °F 38.1 °F 95% 30.10 in 10.0 mi Calm Calm - N/A   Clear
6:31 AM 39.2 °F 37.8 °F 95% 30.12 in 10.0 mi Calm Calm - N/A   Clear
6:51 AM 40.6 °F 39.2 °F 95% 30.12 in 10.0 mi Calm Calm - N/A   Clear
7:12 AM 42.8 °F 41.4 °F 95% 30.13 in 10.0 mi Calm Calm - N/A   Clear
7:31 AM 45.9 °F 43.7 °F 92% 30.13 in 10.0 mi Calm Calm - N/A   Clear
7:51 AM 47.7 °F 43.5 °F 86% 30.13 in 10.0 mi NNW 3.5 mph - N/A   Clear
8:12 AM 49.5 °F 44.4 °F 83% 30.13 in 10.0 mi North 4.6 mph - N/A   Clear
8:31 AM 51.8 °F 45.0 °F 77% 30.13 in 10.0 mi NNW 6.9 mph - N/A   Clear
8:51 AM 53.8 °F 44.1 °F 70% 30.14 in 10.0 mi North 8.1 mph - N/A   Clear
9:12 AM 55.2 °F 43.7 °F 65% 30.15 in 10.0 mi NNW 8.1 mph - N/A   Clear
9:31 AM 56.3 °F 43.7 °F 63% 30.14 in 10.0 mi NNW 10.4 mph - N/A   Clear
9:51 AM 57.4 °F 43.7 °F 60% 30.14 in 10.0 mi North 4.6 mph - N/A   Clear
10:12 AM 58.6 °F 44.1 °F 58% 30.14 in 10.0 mi NNW 6.9 mph - N/A   Clear
10:31 AM 59.2 °F 43.3 °F 56% 30.13 in 10.0 mi North 3.5 mph - N/A   Clear
10:51 AM 60.3 °F 43.2 °F 53% 30.14 in 10.0 mi NNW 4.6 mph - N/A   Clear
11:12 AM 60.6 °F 43.5 °F 53% 30.13 in 10.0 mi NNW 3.5 mph - N/A   Clear
11:31 AM 62.6 °F 43.7 °F 50% 30.13 in 10.0 mi North 4.6 mph - N/A   Clear
11:51 AM 62.4 °F 43.5 °F 50% 30.13 in 10.0 mi West 3.5 mph - N/A   Clear
12:11 PM 64.0 °F 44.1 °F 48% 30.14 in 10.0 mi Calm Calm - N/A   Clear
12:31 PM 65.1 °F 44.8 °F 48% 30.14 in 10.0 mi Calm Calm - N/A   Clear
12:51 PM 66.6 °F 45.1 °F 46% 30.13 in 10.0 mi WNW 3.5 mph - N/A   Clear
1:11 PM 67.3 °F 43.3 °F 42% 30.13 in 10.0 mi Calm Calm - N/A   Clear
1:31 PM 66.9 °F 42.8 °F 42% 30.13 in 7.0 mi WSW 3.5 mph - N/A   Clear
1:51 PM 68.5 °F 43.7 °F 41% 30.12 in 10.0 mi West 5.8 mph - N/A   Clear
2:11 PM 69.4 °F 43.3 °F 39% 30.12 in 10.0 mi West 4.6 mph - N/A   Clear
2:32 PM 70.3 °F 43.3 °F 38% 30.11 in 10.0 mi NW 6.9 mph - N/A   Clear
2:51 PM 70.5 °F 42.4 °F 36% 30.11 in 10.0 mi WSW 5.8 mph - N/A   Clear
3:11 PM 72.1 °F 41.2 °F 33% 30.10 in 10.0 mi WSW 8.1 mph - N/A   Clear
3:31 PM 72.3 °F 41.0 °F 32% 30.09 in 10.0 mi West 4.6 mph - N/A   Clear
3:52 PM 72.3 °F 40.5 °F 32% 30.09 in 10.0 mi Calm Calm - N/A   Clear
4:11 PM 72.7 °F 42.4 °F 34% 30.09 in 7.0 mi SSW 3.5 mph - N/A   Clear
4:32 PM 73.6 °F 41.0 °F 31% 30.08 in 10.0 mi WNW 3.5 mph - N/A   Clear
4:51 PM 73.2 °F 42.8 °F 33% 30.08 in 10.0 mi South 3.5 mph - N/A   Clear
5:11 PM 73.8 °F 42.1 °F 32% 30.08 in 7.0 mi Calm Calm - N/A   Clear
5:32 PM 73.6 °F 42.3 °F 32% 30.08 in 7.0 mi Calm Calm - N/A   Clear
5:51 PM 73.6 °F 41.2 °F 31% 30.08 in 10.0 mi Calm Calm - N/A   Clear
6:12 PM 73.6 °F 41.2 °F 31% 30.08 in 7.0 mi Calm Calm - N/A   Clear
6:31 PM 73.6 °F 42.1 °F 32% 30.08 in 10.0 mi North 3.5 mph - N/A   Clear
6:51 PM 73.2 °F 40.6 °F 31% 30.08 in 10.0 mi Calm Calm - N/A   Clear
7:12 PM 73.6 °F 42.8 °F 33% 30.07 in 10.0 mi ESE 4.6 mph - N/A   Clear
7:31 PM 72.1 °F 43.5 °F 36% 30.07 in 7.0 mi ENE 6.9 mph - N/A   Clear
7:51 PM 71.6 °F 43.5 °F 36% 30.07 in 10.0 mi East 9.2 mph - N/A   Clear
8:12 PM 70.0 °F 44.4 °F 40% 30.07 in 7.0 mi ESE 8.1 mph - N/A   Clear
8:31 PM 68.4 °F 43.3 °F 40% 30.07 in 10.0 mi East 10.4 mph - N/A   Clear
8:51 PM 67.5 °F 42.8 °F 41% 30.08 in 10.0 mi East 5.8 mph - N/A   Clear
9:12 PM 65.1 °F 43.2 °F 45% 30.08 in 10.0 mi East 6.9 mph - N/A   Clear
9:31 PM 63.0 °F 51.4 °F 66% 30.09 in 10.0 mi NE 6.9 mph - N/A   Clear
9:51 PM 61.5 °F 53.8 °F 76% 30.09 in 10.0 mi NE 5.8 mph - N/A   Clear
10:12 PM 59.7 °F 53.6 °F 80% 30.10 in 10.0 mi ENE 4.6 mph - N/A   Clear
10:31 PM 59.2 °F 54.3 °F 84% 30.10 in 10.0 mi East 4.6 mph - N/A   Clear
10:51 PM 57.9 °F 54.0 °F 87% 30.10 in 10.0 mi ENE 5.8 mph - N/A   Clear
11:12 PM 58.3 °F 53.2 °F 83% 30.10 in 10.0 mi East 5.8 mph - N/A   Clear
11:31 PM 59.9 °F 49.3 °F 68% 30.10 in 10.0 mi East 4.6 mph - N/A   Clear
11:51 PM 60.3 °F 48.9 °F 66% 30.10 in 10.0 mi ESE 5.8 mph - N/A   Clear